Time[GMT],salinity[psu](1m),sigma_t[kg/m^3](1m),conductivity[msiemens/cm](1m),temperature[C](1m)
2010-10-13 23:00,31.852,23.715,38.718,14.20
2010-10-13 23:30,31.887,23.750,38.720,14.16
2010-10-14 00:00,31.885,23.770,38.628,14.06
2010-10-14 00:30,31.875,23.774,38.563,14.00
2010-10-14 01:00,31.872,23.747,38.668,14.12
2010-10-14 01:30,31.872,23.745,38.677,14.13
2010-10-14 02:00,31.871,23.734,38.721,14.18
2010-10-14 02:30,31.871,23.734,38.721,14.18
2010-10-14 03:00,31.858,23.726,38.697,14.17
2010-10-14 03:30,31.859,23.724,38.707,14.18
2010-10-14 04:00,31.850,23.724,38.671,14.15
2010-10-14 04:30,31.852,23.728,38.664,14.14
2010-10-14 05:00,31.844,23.723,38.646,14.13
2010-10-14 05:30,31.858,23.736,38.652,14.12
2010-10-14 06:00,31.853,23.728,38.665,14.14
2010-10-14 06:30,31.840,23.727,38.615,14.10
2010-10-14 07:00,31.841,23.725,38.625,14.11
2010-10-14 07:30,31.831,23.724,38.587,14.08
2010-10-14 08:00,31.832,23.724,38.588,14.08
2010-10-14 08:30,31.830,23.727,38.568,14.06
2010-10-14 09:00,31.833,23.731,38.562,14.05
2010-10-14 09:30,31.837,23.741,38.540,14.02
2010-10-14 10:00,31.845,23.749,38.539,14.01
2010-10-14 10:30,31.869,23.767,38.565,14.01
2010-10-14 11:00,31.888,23.784,38.577,14.00
2010-10-14 11:30,31.905,23.799,38.586,13.99
2010-10-14 12:00,31.906,23.806,38.561,13.96
2010-10-14 12:30,31.910,23.809,38.565,13.96
2010-10-14 13:00,31.908,23.806,38.572,13.97
2010-10-14 13:30,31.918,23.818,38.565,13.95
2010-10-14 14:00,31.915,23.813,38.570,13.96
2010-10-14 14:30,31.919,23.812,38.593,13.98
2010-10-14 15:00,31.917,23.813,38.582,13.97
2010-10-14 15:30,31.917,23.802,38.626,14.02
2010-10-14 16:00,31.914,23.794,38.650,14.05
2010-10-14 16:30,31.917,23.792,38.672,14.07
2010-10-14 17:00,31.916,23.788,38.689,14.09
2010-10-14 17:30,31.912,23.770,38.747,14.16
2010-10-14 18:00,31.921,23.781,38.739,14.14
2010-10-14 18:30,31.921,23.772,38.775,14.18
2010-10-14 19:00,31.924,23.777,38.769,14.17
2010-10-14 19:30,31.922,23.777,38.758,14.16
2010-10-14 20:00,31.916,23.777,38.734,14.14
2010-10-14 20:30,31.914,23.781,38.704,14.11
2010-10-14 21:00,31.916,23.787,38.688,14.09
2010-10-14 21:30,31.915,23.786,38.687,14.09
2010-10-14 22:00,31.916,23.788,38.689,14.09
2010-10-14 22:30,31.916,23.793,38.661,14.06
2010-10-14 23:00,31.925,23.804,38.653,14.04
2010-10-14 23:30,31.922,23.806,38.632,14.02
2010-10-15 00:00,31.923,23.807,38.633,14.02
2010-10-15 00:30,31.924,23.812,38.616,14.00
2010-10-15 01:00,31.927,23.816,38.610,13.99
2010-10-15 01:30,31.919,23.806,38.620,14.01
2010-10-15 02:00,31.923,23.809,38.624,14.01
2010-10-15 02:30,31.930,23.821,38.605,13.98
2010-10-15 03:00,31.928,23.821,38.593,13.97
2010-10-15 03:30,31.925,23.821,38.581,13.96
2010-10-15 04:00,31.918,23.812,38.592,13.98
2010-10-15 04:30,31.919,23.810,38.602,13.99
2010-10-15 05:00,31.908,23.806,38.572,13.97
2010-10-15 05:30,31.898,23.802,38.543,13.95
2010-10-15 06:00,31.894,23.801,38.529,13.94
2010-10-15 06:30,31.893,23.802,38.519,13.93
2010-10-15 07:00,31.887,23.798,38.513,13.93
2010-10-15 07:30,31.888,23.798,38.514,13.93
2010-10-15 08:00,31.868,23.783,38.492,13.93
2010-10-15 08:30,31.882,23.794,38.508,13.93
2010-10-15 09:00,31.880,23.792,38.505,13.93
2010-10-15 09:30,31.866,23.781,38.490,13.93
2010-10-15 10:00,31.878,23.791,38.503,13.93
2010-10-15 10:30,31.889,23.801,38.506,13.92
2010-10-15 11:00,31.882,23.795,38.498,13.92
2010-10-15 11:30,31.894,23.809,38.494,13.90
2010-10-15 12:00,31.896,23.813,38.487,13.89
2010-10-15 12:30,31.897,23.814,38.488,13.89
2010-10-15 13:00,31.901,23.818,38.483,13.88
2010-10-15 13:30,31.900,23.820,38.473,13.87
2010-10-15 14:00,31.897,23.820,38.461,13.86
2010-10-15 14:30,31.899,23.821,38.463,13.86
2010-10-15 15:00,31.901,23.823,38.465,13.86
2010-10-15 15:30,31.906,23.828,38.461,13.85
2010-10-15 16:00,31.903,23.828,38.449,13.84
2010-10-15 16:30,31.909,23.835,38.447,13.83
2010-10-15 17:00,31.912,23.841,38.432,13.81
2010-10-15 17:30,31.915,23.847,38.417,13.79
2010-10-15 18:00,31.919,23.859,38.386,13.75
2010-10-15 18:30,31.926,23.868,38.375,13.73
2010-10-15 19:00,31.932,23.885,38.328,13.67
2010-10-15 19:30,31.947,23.911,38.281,13.60
2010-10-15 20:00,31.945,23.923,38.216,13.53
2010-10-15 20:30,31.931,23.926,38.138,13.46
2010-10-15 21:00,31.937,23.927,38.162,13.48
2010-10-15 21:30,31.900,23.908,38.078,13.43
2010-10-15 22:00,31.907,23.936,37.987,13.32
2010-10-15 22:30,31.921,23.968,37.903,13.21
2010-10-15 23:00,31.925,23.991,37.818,13.11
2010-10-15 23:30,31.951,24.031,37.756,13.01
2010-10-16 00:00,31.961,24.058,37.677,12.91
2010-10-16 00:30,31.975,24.096,37.567,12.77
2010-10-16 01:00,31.986,24.116,37.525,12.71
2010-10-16 01:30,31.995,24.138,37.462,12.63
2010-10-16 02:00,32.001,24.152,37.424,12.58
2010-10-16 02:30,32.005,24.167,37.375,12.52
2010-10-16 03:00,32.010,24.173,37.371,12.51
2010-10-16 03:30,32.001,24.181,37.290,12.43
2010-10-16 04:00,32.005,24.174,37.339,12.48
2010-10-16 04:30,32.001,24.171,37.335,12.48
2010-10-16 05:00,32.029,24.221,37.230,12.33
2010-10-16 05:30,32.026,24.225,37.200,12.30
2010-10-16 06:00,32.043,24.259,37.120,12.19
2010-10-16 06:30,32.044,24.278,37.032,12.09
2010-10-16 07:00,32.056,24.270,37.124,12.18
2010-10-16 07:30,32.051,24.250,37.200,12.27
2010-10-16 08:00,32.043,24.240,37.209,12.29
2010-10-16 08:30,32.048,24.248,37.197,12.27
2010-10-16 09:00,32.057,24.235,37.295,12.37
2010-10-16 09:30,32.060,24.234,37.316,12.39
2010-10-16 10:00,32.071,24.256,37.265,12.32
2010-10-16 10:30,32.082,24.265,37.277,12.32
2010-10-16 11:00,32.092,24.242,37.430,12.48
2010-10-16 11:30,32.098,24.227,37.526,12.58
2010-10-16 12:00,32.103,24.239,37.495,12.54
2010-10-16 12:30,32.113,24.252,37.479,12.51
2010-10-16 13:00,32.116,24.260,37.455,12.48
2010-10-16 13:30,32.126,24.276,37.430,12.44
2010-10-16 14:00,32.143,24.287,37.457,12.45
2010-10-16 14:30,32.160,24.296,37.492,12.47
2010-10-16 15:00,32.170,24.299,37.530,12.50
2010-10-16 15:30,32.181,24.295,37.595,12.56
2010-10-16 16:00,32.187,24.297,37.620,12.58
2010-10-16 16:30,32.207,24.304,37.676,12.62
2010-10-16 17:00,32.211,24.300,37.717,12.66
2010-10-16 17:30,32.198,24.290,37.703,12.66
2010-10-16 18:00,32.208,24.303,37.687,12.63
2010-10-16 18:30,32.217,24.310,37.696,12.63
2010-10-16 19:00,32.217,24.308,37.705,12.64
2010-10-16 19:30,32.221,24.311,37.709,12.64
2010-10-16 20:00,32.211,24.300,37.717,12.66
2010-10-16 20:30,32.159,24.242,37.743,12.75
2010-10-16 21:00,32.206,24.290,37.738,12.69
2010-10-16 21:30,32.234,24.304,37.804,12.73
2010-10-16 22:00,32.264,24.338,37.781,12.67
2010-10-16 22:30,32.269,24.347,37.769,12.65
2010-10-16 23:00,32.282,24.366,37.737,12.60
2010-10-16 23:30,32.286,24.371,37.732,12.59
2010-10-17 00:00,32.275,24.359,37.739,12.61
2010-10-17 00:30,32.265,24.351,37.728,12.61
2010-10-17 01:00,32.257,24.345,37.720,12.61
2010-10-17 01:30,32.264,24.352,37.718,12.60
2010-10-17 02:00,32.250,24.340,37.713,12.61
2010-10-17 02:30,32.248,24.338,37.711,12.61
2010-10-17 03:00,32.246,24.335,37.718,12.62
2010-10-17 03:30,32.241,24.328,37.721,12.63
2010-10-17 04:00,32.234,24.319,37.732,12.65
2010-10-17 04:30,32.236,24.319,37.743,12.66
2010-10-17 05:00,32.232,24.318,37.730,12.65
2010-10-17 05:30,32.234,24.318,37.741,12.66
2010-10-17 06:00,32.236,24.319,37.743,12.66
2010-10-17 06:30,32.232,24.316,37.739,12.66
2010-10-17 07:00,32.231,24.311,37.756,12.68
2010-10-17 07:30,32.231,24.313,37.747,12.67
2010-10-17 08:00,32.228,24.309,37.753,12.68
2010-10-17 08:30,32.229,24.312,37.745,12.67
2010-10-17 09:00,32.227,24.308,37.751,12.68
2010-10-17 09:30,32.225,24.306,37.749,12.68
2010-10-17 10:00,32.219,24.300,37.752,12.69
2010-10-17 10:30,32.218,24.299,37.751,12.69
2010-10-17 11:00,32.224,24.308,37.739,12.67
2010-10-17 11:30,32.224,24.309,37.730,12.66
2010-10-17 12:00,32.217,24.302,37.732,12.67
2010-10-17 12:30,32.220,24.305,37.735,12.67
2010-10-17 13:00,32.217,24.300,37.741,12.68
2010-10-17 13:30,32.220,24.301,37.753,12.69
2010-10-17 14:00,32.180,24.264,37.738,12.72
2010-10-17 14:30,32.172,24.256,37.739,12.73
2010-10-17 15:00,32.167,24.248,37.751,12.75
2010-10-17 15:30,32.159,24.240,37.752,12.76
2010-10-17 16:00,32.142,24.223,37.752,12.78
2010-10-17 16:30,32.136,24.212,37.772,12.81
2010-10-17 17:00,32.130,24.206,37.775,12.82
2010-10-17 17:30,32.115,24.188,37.786,12.85
2010-10-17 18:00,32.110,24.185,37.781,12.85
2010-10-17 18:30,32.099,24.172,37.787,12.87
2010-10-17 19:00,32.087,24.157,37.801,12.90
2010-10-17 19:30,32.084,24.155,37.798,12.90
2010-10-17 20:00,32.079,24.155,37.775,12.88
2010-10-17 20:30,32.069,24.149,37.756,12.87
2010-10-17 21:00,32.068,24.152,37.736,12.85
2010-10-17 21:30,32.064,24.151,37.723,12.84
2010-10-17 22:00,32.060,24.150,37.710,12.83
2010-10-17 22:30,32.065,24.159,37.688,12.80
2010-10-17 23:00,32.064,24.160,37.678,12.79
2010-10-17 23:30,32.055,24.154,37.669,12.79
2010-10-18 00:00,32.037,24.140,37.650,12.79
2010-10-18 00:30,32.041,24.145,37.645,12.78
2010-10-18 01:00,32.036,24.145,37.622,12.76
2010-10-18 01:30,32.025,24.138,37.601,12.75
2010-10-18 02:00,32.019,24.135,37.586,12.74
2010-10-18 02:30,32.037,24.153,37.587,12.72
2010-10-18 03:00,32.008,24.133,37.548,12.71
2010-10-18 03:30,31.994,24.122,37.533,12.71
2010-10-18 04:00,31.988,24.119,37.518,12.70
2010-10-18 04:30,31.989,24.122,37.510,12.69
2010-10-18 05:00,31.989,24.122,37.510,12.69
2010-10-18 05:30,31.998,24.127,37.528,12.70
2010-10-18 06:00,32.007,24.134,37.538,12.70
2010-10-18 06:30,32.023,24.145,37.564,12.71
2010-10-18 07:00,32.034,24.155,37.566,12.70
2010-10-18 07:30,32.066,24.183,37.582,12.68
2010-10-18 08:00,32.070,24.186,37.586,12.68
2010-10-18 08:30,32.090,24.206,37.589,12.66
2010-10-18 09:00,32.091,24.206,37.590,12.66
2010-10-18 09:30,32.098,24.216,37.580,12.64
2010-10-18 10:00,32.109,24.226,37.582,12.63
2010-10-18 10:30,32.115,24.235,37.571,12.61
2010-10-18 11:00,32.112,24.235,37.559,12.60
2010-10-18 11:30,32.119,24.240,37.566,12.60
2010-10-18 12:00,32.113,24.237,37.551,12.59
2010-10-18 12:30,32.109,24.232,37.556,12.60
2010-10-18 13:00,32.116,24.239,37.554,12.59
2010-10-18 13:30,32.113,24.235,37.560,12.60
2010-10-18 14:00,32.111,24.232,37.567,12.61
2010-10-18 14:30,32.128,24.245,37.585,12.61
2010-10-18 15:00,32.125,24.240,37.590,12.62
2010-10-18 15:30,32.122,24.234,37.605,12.64
2010-10-18 16:00,32.130,24.238,37.622,12.65
2010-10-18 16:30,32.133,24.241,37.626,12.65
2010-10-18 17:00,32.124,24.230,37.634,12.67
2010-10-18 17:30,32.131,24.235,37.641,12.67
2010-10-18 18:00,32.129,24.234,37.639,12.67
2010-10-18 18:30,32.132,24.237,37.643,12.67
2010-10-18 19:00,32.132,24.237,37.643,12.67
2010-10-18 19:30,32.130,24.233,37.649,12.68
2010-10-18 20:00,32.132,24.234,37.651,12.68
2010-10-18 20:30,32.138,24.241,37.649,12.67
2010-10-18 21:00,32.136,24.242,37.638,12.66
2010-10-18 21:30,32.133,24.241,37.626,12.65
2010-10-18 22:00,32.145,24.252,37.629,12.64
2010-10-18 22:30,32.140,24.248,37.624,12.64
2010-10-18 23:00,32.142,24.254,37.608,12.62
2010-10-18 23:30,32.160,24.268,37.627,12.62
2010-10-19 00:00,32.164,24.269,37.640,12.63
2010-10-19 00:30,32.170,24.278,37.629,12.61
2010-10-19 01:00,32.167,24.277,37.617,12.60
2010-10-19 01:30,32.170,24.283,37.602,12.58
2010-10-19 02:00,32.158,24.270,37.607,12.60
2010-10-19 02:30,32.182,24.288,37.632,12.60
2010-10-19 03:00,32.187,24.297,37.620,12.58
2010-10-19 03:30,32.178,24.289,37.610,12.58
2010-10-19 04:00,32.177,24.289,37.609,12.58
2010-10-19 04:30,32.175,24.285,37.616,12.59
2010-10-19 05:00,32.170,24.283,37.602,12.58
2010-10-19 05:30,32.173,24.289,37.587,12.56
2010-10-19 06:00,32.174,24.290,37.588,12.56
2010-10-19 06:30,32.181,24.299,37.577,12.54
2010-10-19 07:00,32.181,24.303,37.559,12.52
2010-10-19 07:30,32.196,24.317,37.566,12.51
2010-10-19 08:00,32.208,24.334,37.543,12.47
2010-10-19 08:30,32.222,24.348,37.539,12.45
2010-10-19 09:00,32.228,24.359,37.519,12.42
2010-10-19 09:30,32.228,24.363,37.501,12.40
2010-10-19 10:00,32.236,24.380,37.455,12.34
2010-10-19 10:30,32.234,24.380,37.444,12.33
2010-10-19 11:00,32.241,24.394,37.416,12.29
2010-10-19 11:30,32.235,24.385,37.427,12.31
2010-10-19 12:00,32.234,24.386,37.417,12.30
2010-10-19 12:30,32.240,24.398,37.388,12.26
2010-10-19 13:00,32.240,24.400,37.379,12.25
2010-10-19 13:30,32.240,24.400,37.379,12.25
2010-10-19 14:00,32.237,24.392,37.403,12.28
2010-10-19 14:30,32.240,24.389,37.433,12.31
2010-10-19 15:00,32.242,24.387,37.453,12.33
2010-10-19 15:30,32.239,24.373,37.503,12.39
2010-10-19 16:00,32.237,24.360,37.555,12.45
2010-10-19 16:30,32.237,24.345,37.627,12.53
2010-10-19 17:00,32.234,24.331,37.678,12.59
2010-10-19 17:30,32.239,24.335,37.683,12.59
2010-10-19 18:00,32.230,24.324,37.692,12.61
2010-10-19 18:30,32.238,24.332,37.691,12.60
2010-10-19 19:00,32.236,24.325,37.716,12.63
2010-10-19 19:30,32.237,24.325,37.717,12.63
2010-10-19 20:00,32.229,24.323,37.691,12.61
2010-10-19 20:30,32.233,24.323,37.713,12.63
2010-10-19 21:00,32.233,24.330,37.677,12.59
2010-10-19 21:30,32.239,24.333,37.692,12.60
2010-10-19 22:00,32.227,24.328,37.662,12.58
2010-10-19 22:30,32.231,24.340,37.621,12.53
2010-10-19 23:00,32.222,24.337,37.593,12.51
2010-10-19 23:30,32.224,24.348,37.551,12.46
2010-10-20 00:00,32.220,24.339,37.573,12.49
2010-10-20 00:30,32.210,24.326,37.590,12.52
2010-10-20 01:00,32.218,24.330,37.607,12.53
2010-10-20 01:30,32.219,24.334,37.590,12.51
2010-10-20 02:00,32.220,24.345,37.546,12.46
2010-10-20 02:30,32.229,24.363,37.502,12.40
2010-10-20 03:00,32.226,24.367,37.472,12.37
2010-10-20 03:30,32.225,24.370,37.453,12.35
2010-10-20 04:00,32.222,24.371,37.432,12.33
2010-10-20 04:30,32.225,24.379,37.408,12.30
2010-10-20 05:00,32.235,24.390,37.400,12.28
2010-10-20 05:30,32.246,24.407,37.376,12.24
2010-10-20 06:00,32.250,24.415,37.353,12.21
2010-10-20 06:30,32.248,24.412,37.360,12.22
2010-10-20 07:00,32.250,24.415,37.353,12.21
2010-10-20 07:30,32.254,24.423,37.340,12.19
2010-10-20 08:00,32.243,24.414,37.328,12.19
2010-10-20 08:30,32.251,24.418,37.345,12.20
2010-10-20 09:00,32.242,24.407,37.354,12.22
2010-10-20 09:30,32.231,24.389,37.387,12.27
2010-10-20 10:00,32.229,24.388,37.385,12.27
2010-10-20 10:30,32.226,24.387,37.373,12.26
2010-10-20 11:00,32.231,24.396,37.351,12.23
2010-10-20 11:30,32.229,24.401,37.322,12.20
2010-10-20 12:00,32.235,24.411,37.302,12.17
2010-10-20 12:30,32.234,24.411,37.301,12.17
2010-10-20 13:00,32.235,24.413,37.293,12.16
2010-10-20 13:30,32.232,24.409,37.299,12.17
2010-10-20 14:00,32.222,24.399,37.297,12.18
2010-10-20 14:30,32.222,24.397,37.306,12.19
2010-10-20 15:00,32.213,24.381,37.342,12.24
2010-10-20 15:30,32.218,24.378,37.383,12.28
2010-10-20 16:00,32.217,24.364,37.445,12.35
2010-10-20 16:30,32.215,24.345,37.523,12.44
2010-10-20 17:00,32.224,24.342,37.577,12.49
2010-10-20 17:30,32.227,24.326,37.671,12.59
2010-10-20 18:00,32.266,24.371,37.640,12.51
2010-10-20 18:30,32.230,24.341,37.611,12.52
2010-10-20 19:00,32.240,24.341,37.657,12.56
2010-10-20 19:30,32.232,24.333,37.658,12.57
2010-10-20 20:00,32.226,24.330,37.642,12.56
2010-10-20 20:30,32.217,24.323,37.633,12.56
2010-10-20 21:00,32.209,24.340,37.517,12.44
2010-10-20 21:30,32.212,24.333,37.565,12.49
2010-10-20 22:00,32.211,24.347,37.492,12.41
2010-10-20 22:30,32.203,24.338,37.502,12.43
2010-10-20 23:00,32.213,24.337,37.548,12.47
2010-10-20 23:30,32.216,24.330,37.596,12.52
2010-10-21 00:00,32.216,24.330,37.596,12.52
2010-10-21 00:30,32.219,24.338,37.572,12.49
2010-10-21 01:00,32.210,24.331,37.563,12.49
2010-10-21 01:30,32.210,24.330,37.572,12.50
2010-10-21 02:00,32.217,24.346,37.525,12.44
2010-10-21 02:30,32.213,24.349,37.494,12.41
2010-10-21 03:00,32.211,24.347,37.492,12.41
2010-10-21 03:30,32.204,24.342,37.485,12.41
2010-10-21 04:00,32.212,24.350,37.484,12.40
2010-10-21 04:30,32.209,24.350,37.472,12.39
2010-10-21 05:00,32.212,24.352,37.475,12.39
2010-10-21 05:30,32.210,24.350,37.473,12.39
2010-10-21 06:00,32.210,24.352,37.464,12.38
2010-10-21 06:30,32.210,24.350,37.473,12.39
2010-10-21 07:00,32.210,24.350,37.473,12.39
2010-10-21 07:30,32.218,24.363,37.455,12.36
2010-10-21 08:00,32.215,24.358,37.460,12.37
2010-10-21 08:30,32.208,24.353,37.453,12.37
2010-10-21 09:00,32.211,24.357,37.447,12.36
2010-10-21 09:30,32.213,24.360,37.440,12.35
2010-10-21 10:00,32.208,24.354,37.444,12.36
2010-10-21 10:30,32.217,24.366,37.436,12.34
2010-10-21 11:00,32.215,24.360,37.451,12.36
2010-10-21 11:30,32.218,24.362,37.454,12.36
2010-10-21 12:00,32.218,24.362,37.454,12.36
2010-10-21 12:30,32.217,24.357,37.471,12.38
2010-10-21 13:00,32.218,24.354,37.490,12.40
2010-10-21 13:30,32.217,24.350,37.507,12.42
2010-10-21 14:00,32.214,24.346,37.513,12.43
2010-10-21 14:30,32.208,24.341,37.507,12.43
2010-10-21 15:00,32.206,24.340,37.505,12.43
2010-10-21 15:30,32.211,24.344,37.510,12.43
2010-10-21 16:00,32.211,24.345,37.501,12.42
2010-10-21 16:30,32.215,24.350,37.496,12.41
2010-10-21 17:00,32.214,24.350,37.495,12.41
2010-10-21 17:30,32.212,24.344,37.511,12.43
2010-10-21 18:00,32.173,24.312,37.479,12.44
2010-10-21 18:30,32.207,24.337,37.524,12.45
2010-10-21 19:00,32.212,24.339,37.538,12.46
2010-10-21 19:30,32.214,24.338,37.549,12.47
2010-10-21 20:00,32.213,24.337,37.548,12.47
2010-10-21 20:30,32.206,24.330,37.550,12.48
2010-10-21 21:00,32.209,24.335,37.544,12.47
2010-10-21 21:30,32.212,24.341,37.529,12.45
2010-10-21 22:00,32.215,24.346,37.514,12.43
2010-10-21 22:30,32.211,24.342,37.519,12.44
2010-10-21 23:00,32.212,24.348,37.493,12.41
2010-10-21 23:30,32.212,24.348,37.493,12.41
2010-10-22 00:00,32.208,24.345,37.489,12.41
2010-10-22 00:30,32.211,24.349,37.483,12.40
2010-10-22 01:00,32.214,24.353,37.477,12.39
2010-10-22 01:30,32.207,24.346,37.479,12.40
2010-10-22 02:00,32.210,24.352,37.464,12.38
2010-10-22 02:30,32.211,24.353,37.465,12.38
2010-10-22 03:00,32.211,24.357,37.447,12.36
2010-10-22 03:30,32.201,24.344,37.464,12.39
2010-10-22 04:00,32.203,24.347,37.457,12.38
2010-10-22 04:30,32.210,24.358,37.437,12.35
2010-10-22 05:00,32.211,24.360,37.429,12.34
2010-10-22 05:30,32.207,24.357,37.425,12.34
2010-10-22 06:00,32.203,24.358,37.403,12.32
2010-10-22 06:30,32.206,24.362,37.397,12.31
2010-10-22 07:00,32.205,24.365,37.378,12.29
2010-10-22 07:30,32.209,24.370,37.373,12.28
2010-10-22 08:00,32.212,24.372,37.376,12.28
2010-10-22 08:30,32.211,24.374,37.367,12.27
2010-10-22 09:00,32.213,24.372,37.387,12.29
2010-10-22 09:30,32.206,24.366,37.379,12.29
2010-10-22 10:00,32.211,24.370,37.384,12.29
2010-10-22 10:30,32.211,24.372,37.375,12.28
2010-10-22 11:00,32.212,24.375,37.368,12.27
2010-10-22 11:30,32.217,24.382,37.355,12.25
2010-10-22 12:00,32.214,24.382,37.343,12.24
2010-10-22 12:30,32.220,24.385,37.358,12.25
2010-10-22 13:00,32.225,24.392,37.345,12.23
2010-10-22 13:30,32.223,24.392,37.334,12.22
2010-10-22 14:00,32.228,24.396,37.339,12.22
2010-10-22 14:30,32.229,24.397,37.340,12.22
2010-10-22 15:00,32.235,24.406,37.329,12.20
2010-10-22 15:30,32.234,24.405,37.328,12.20
2010-10-22 16:00,32.233,24.401,37.345,12.22
2010-10-22 16:30,32.231,24.399,37.343,12.22
2010-10-22 17:00,32.233,24.397,37.363,12.24
2010-10-22 17:30,32.233,24.396,37.362,12.24
2010-10-22 18:00,32.235,24.400,37.356,12.23
2010-10-22 18:30,32.228,24.392,37.357,12.24
2010-10-22 19:00,32.228,24.396,37.339,12.22
2010-10-22 19:30,32.225,24.396,37.327,12.21
2010-10-22 20:00,32.233,24.408,37.309,12.18
2010-10-22 20:30,32.230,24.402,37.324,12.20
2010-10-22 21:00,32.238,24.414,37.305,12.17
2010-10-22 21:30,32.234,24.414,37.283,12.15
2010-10-22 22:00,32.235,24.415,37.284,12.15
2010-10-22 22:30,32.242,24.422,37.282,12.14
2010-10-22 23:00,32.242,24.420,37.291,12.15
2010-10-22 23:30,32.249,24.430,37.281,12.13
2010-10-23 00:00,32.256,24.437,37.279,12.12
2010-10-23 00:30,32.251,24.431,37.283,12.13
2010-10-23 01:00,32.252,24.438,37.257,12.10
2010-10-23 01:30,32.258,24.450,37.227,12.06
2010-10-23 02:00,32.256,24.452,37.207,12.04
2010-10-23 02:30,32.251,24.452,37.184,12.02
2010-10-23 03:00,32.244,24.445,37.186,12.03
2010-10-23 03:30,32.245,24.447,37.178,12.02
2010-10-23 04:00,32.249,24.452,37.173,12.01
2010-10-23 04:30,32.240,24.443,37.173,12.02
2010-10-23 05:00,32.242,24.449,37.157,12.00
2010-10-23 05:30,32.242,24.450,37.148,11.99
2010-10-23 06:00,32.253,24.460,37.150,11.98
2010-10-23 06:30,32.257,24.463,37.154,11.98
2010-10-23 07:00,32.256,24.466,37.135,11.96
2010-10-23 07:30,32.266,24.471,37.164,11.98
2010-10-23 08:00,32.261,24.465,37.168,11.99
2010-10-23 08:30,32.263,24.465,37.179,12.00
2010-10-23 09:00,32.271,24.475,37.169,11.98
2010-10-23 09:30,32.270,24.472,37.177,11.99
2010-10-23 10:00,32.264,24.471,37.153,11.97
2010-10-23 10:30,32.266,24.473,37.155,11.97
2010-10-23 11:00,32.266,24.475,37.146,11.96
2010-10-23 11:30,32.273,24.485,37.126,11.93
2010-10-23 12:00,32.271,24.478,37.151,11.96
2010-10-23 12:30,32.275,24.487,37.128,11.93
2010-10-23 13:00,32.274,24.490,37.109,11.91
2010-10-23 13:30,32.271,24.489,37.097,11.90
2010-10-23 14:00,32.262,24.481,37.097,11.91
2010-10-23 14:30,32.262,24.482,37.088,11.90
2010-10-23 15:00,32.267,24.488,37.084,11.89
2010-10-23 15:30,32.267,24.488,37.084,11.89
2010-10-23 16:00,32.264,24.484,37.090,11.90
2010-10-23 16:30,32.266,24.485,37.092,11.90
2010-10-23 17:00,32.267,24.484,37.102,11.91
2010-10-23 17:30,32.265,24.481,37.109,11.92
2010-10-23 18:00,32.267,24.481,37.120,11.93
2010-10-23 18:30,32.274,24.484,37.136,11.94
2010-10-23 19:00,32.273,24.483,37.135,11.94
2010-10-23 19:30,32.278,24.487,37.140,11.94
2010-10-23 20:00,32.276,24.484,37.147,11.95
2010-10-23 20:30,32.275,24.485,37.137,11.94
2010-10-23 21:00,32.281,24.493,37.125,11.92
2010-10-23 21:30,32.278,24.489,37.131,11.93
2010-10-23 22:00,32.274,24.486,37.127,11.93
2010-10-23 22:30,32.279,24.492,37.123,11.92
2010-10-23 23:00,32.274,24.488,37.118,11.92
2010-10-23 23:30,32.279,24.496,37.106,11.90
2010-10-24 00:00,32.273,24.491,37.099,11.90
2010-10-24 00:30,32.274,24.497,37.073,11.87
2010-10-24 01:00,32.272,24.495,37.071,11.87
2010-10-24 01:30,32.278,24.504,37.060,11.85
2010-10-24 02:00,32.273,24.504,37.037,11.83
2010-10-24 02:30,32.273,24.499,37.064,11.86
2010-10-24 03:00,32.283,24.510,37.056,11.84
2010-10-24 03:30,32.292,24.517,37.065,11.84
2010-10-24 04:00,32.290,24.513,37.072,11.85
2010-10-24 04:30,32.295,24.521,37.059,11.83
2010-10-24 05:00,32.287,24.513,37.060,11.84
2010-10-24 05:30,32.289,24.514,37.062,11.84
2010-10-24 06:00,32.290,24.517,37.054,11.83
2010-10-24 06:30,32.290,24.521,37.036,11.81
2010-10-24 07:00,32.288,24.519,37.034,11.81
2010-10-24 07:30,32.293,24.525,37.030,11.80
2010-10-24 08:00,32.292,24.524,37.029,11.80
2010-10-24 08:30,32.279,24.514,37.016,11.80
2010-10-24 09:00,32.283,24.519,37.011,11.79
2010-10-24 09:30,32.288,24.524,37.007,11.78
2010-10-24 10:00,32.281,24.516,37.018,11.80
2010-10-24 10:30,32.286,24.521,37.014,11.79
2010-10-24 11:00,32.282,24.518,37.010,11.79
2010-10-24 11:30,32.294,24.531,37.005,11.77
2010-10-24 12:00,32.289,24.523,37.017,11.79
2010-10-24 12:30,32.297,24.528,37.035,11.80
2010-10-24 13:00,32.298,24.529,37.036,11.80
2010-10-24 13:30,32.289,24.518,37.044,11.82
2010-10-24 14:00,32.291,24.519,37.046,11.82
2010-10-24 14:30,32.284,24.514,37.039,11.82
2010-10-24 15:00,32.273,24.499,37.064,11.86
2010-10-24 15:30,32.277,24.494,37.103,11.90
2010-10-24 16:00,32.282,24.507,37.064,11.85
2010-10-24 16:30,32.282,24.504,37.082,11.87
2010-10-24 17:00,32.274,24.497,37.073,11.87
2010-10-24 17:30,32.284,24.507,37.075,11.86
2010-10-24 18:00,32.275,24.498,37.074,11.87
2010-10-24 18:30,32.276,24.503,37.058,11.85
2010-10-24 19:00,32.270,24.499,37.042,11.84
2010-10-24 19:30,32.281,24.508,37.054,11.84
2010-10-24 20:00,32.282,24.511,37.046,11.83
2010-10-24 20:30,32.279,24.512,37.025,11.81
2010-10-24 21:00,32.284,24.516,37.030,11.81
2010-10-24 21:30,32.286,24.519,37.023,11.80
2010-10-24 22:00,32.286,24.519,37.023,11.80
2010-10-24 22:30,32.293,24.526,37.021,11.79
2010-10-24 23:00,32.290,24.521,37.036,11.81
2010-10-24 23:30,32.296,24.528,37.034,11.80
2010-10-25 00:00,32.295,24.529,37.024,11.79